Regional Weather Roundup
Issued by NWS Goodland, KS

Home | Current Version | Previous Version | Text Only | Print | Product List | Glossary On
Versions: 1 2 3 4 5 6 7 8 9 10 11 12 13 14 15 16 17 18 19 20 21 22 23 24 25 26 27 28 29 30 31 32 33 34 35 36 37 38 39 40 41 42 43 44 45 46 47 48 49 50
000
ASUS43 KGLD 261108
RWRGLD

GOODLAND FORECAST AREA HOURLY WEATHER ROUNDUP
NATIONAL WEATHER SERVICE GOODLAND KS
500 AM MDT SAT JUL 26 2014

...OFFICIAL OBSERVATIONS...

CITY           SKY/WX    TMP DP  RH WIND       PRES   REMARKS
GOODLAND KS    MOCLDY    67  64  90 S8        29.97R
HILL CITY KS   CLOUDY    72  67  84 NW6       29.81S
IMPERIAL NEB   PTCLDY    68  62  81 W7        29.92R
MCCOOK NEB     MOCLDY    69  66  90 NW5       29.88R
AKRON CO       CLEAR     68  52  56 W10       30.03F
BURLINGTON CO  MOCLDY    68  60  75 W9        30.00R
LIMON CO       CLEAR     53  51  93 N5        30.10S
$$

...UNOFFICIAL OBSERVATIONS...

CITY           SKY/WX    TMP DP  RH WIND       PRES   REMARKS
COLBY KS       CLEAR     64  64 100 W8        29.93R
GOVE KS          N/A     70  32  24 MISG        N/A
LENORA KS        N/A     70  32  24 MISG        N/A
NORTON KS      CLEAR     66  61  82 CALM      29.82S
SHARON SPRINGS   N/A     66  63  89 CALM        N/A
TRIBUNE KS     CLEAR     66  57  72 SW7       29.98
WAKEENEY KS      N/A     75  65  73 MISG        N/A
TRENTON NEB      N/A     72  32  23 W7          N/A
KIT CARSON CO    N/A     65  62  89 CALM        N/A
WRAY CO          N/A     66  57  72 SW6       29.96
YUMA CO          N/A     63  55  75 SW6         N/A
$$


USA.gov is the U.S. government's official web portal to all federal, state and local government web resources and services.